STARLINK-35929, 66625

Orbit data source: Space-Track

STARLINK-35929, 66625 is a payload satellite owned by SpaceX/Seattle (US) in LEO that was launched on Sun, 23 Nov 2025 UTC via an FALCON 9 launch vehicle from the Air Force Western Test Range (AFWTR). Payload-class satellites include a variety of spacecraft equipped with specific instruments for various scientific and technological missions. These include communications satellites like Starlink; space stations such as the ISS; scientific satellites like the Hubble; Earth observation satellites from companies like Planet Labs, Umbra, and HawkEye 360; GPS; miniature CubeSats for education and research; and military/defense satellites.

Loading next visibility...
Identifier
66625, 2025-271J
Orbit
LEO
Country
Flag of USUS
Related business
Manufacturer
SpaceX/Seattle
Mission
Operational Commercial Communications
Bus & Motor
STARLINK V2MO, Unknown motor
Mass
575 kg wet, ~530 kg dry
Launch date (UTC)
2025-11-23 (10 months ago)
Launch vehicle
FALCON 9
Launch site
Air Force Western Test Range (AFWTR)
Object type
Payload
Rocket body
Debris
Shape & HBR
Box + 1 Pan, 17.7 m
Radar Cross Section
41.120 m², Large (>1 m²)

Expand to show TLE details & history
Last TLE update: 1 day ago

TLE from 1 day ago
0 STARLINK-35929
1 66625U 25271J   26264.58211887  .00015667  00000-0  47367-3 0  9997
2 66625  53.1598 304.7176 0001046  86.5944 273.5178 15.34412003 47628
Epoch: 2026-09-21T13:58Z
TLE epoch observation values (Epoch: 2026-09-21T13:58:15.070Z)
Latitude
-0.00004°
Longitude
94.6949°
Altitude
463.525 km
Speed
7.636 km/s
True Right ascension
20h 18m 52s
True Declination
0° 00' 00"
Sunlit
Object was in full shadow at epoch
Visualization orbit readout
Latitude
Unknown
Longitude
Unknown
Altitude
Unknown
Speed
Unknown
Apparent Right ascension
Unknown
Apparent Declination
Unknown
Sunlit
N/A
Visualization observer readout
Local Sidereal Time
17:13:35
Azimuth
Unknown
Elevation
Unknown
Doppler factor
Unknown
Orbital elements
Apogee altitude
463.64 km
Perigee altitude
462.209 km
Semi-major axis
6,841.061 km
Eccentricity
0.0001
Inclination
53.1598°
RAAN
304.7176°
Arg. of periapsis
86.5944°
True anomaly
273.50584°
Mean anomaly
273.5178°
Eccentric anomaly
273.51182°
Mean motion
3.83582 °/min
Orbital period
93.85 mins
BSTAR
0.00047367
Loading maneuver chart data...
Computing Atmospheric mass density...
Loading historical data...
Loading historical data...
Loading historical data...
Loading historical data...
Loading historical data...
Loading historical data...
Loading historical data...

Documentation

Showing up to 5 results
|